Weather History for Santa Fe, NM

Change the Weather History Date:

Friday, March 8, 2013

  Actual Average Record
Temperature  
Mean Temperature 43 °F -  
Max Temperature 59 °F 0 °F 68 °F (2004)
Min Temperature 27 °F - 19 °F (1998)
Degree Days  
Heating Degree Days 22    
Moisture  
Dew Point 25 °F    
Average Humidity 57    
Maximum Humidity 93    
Minimum Humidity 18    
Precipitation  
Precipitation 0.08 in - - ()
Sea Level Pressure  
Sea Level Pressure 29.79 in    
Wind  
Wind Speed 8 mph (SSW)    
Max Wind Speed 26 mph    
Max Gust Speed 37 mph    
Visibility 9 miles    
Events Rain    
Averages and records for this station are not official NWS values.
T = Trace of Precipitation, MM = Missing Value Source: NWS Daily Summary

Daily Weather History Graph

Daily Weather History Graph

Search for Another Location

Airport:

Trip Planner

Search our weather history database for the weather conditions in past years. The results will help you decide how hot, cold, wet, or windy it might be!

Date:

Astronomy

Mar. 08, 2013 Rise Set
Actual Time 6:24 AM MST 6:06 PM MST
Civil Twilight 5:58 AM MST 6:31 PM MST
Nautical Twilight 5:29 AM MST 7:01 PM MST
Astronomical Twilight 4:59 AM MST 7:30 PM MST
Moon 4:05 AM MST (3/8) 3:09 PM MST (3/8)
Length of Visible Light 12h 32m
Length of Day
11h 41m
Waning Crescent, 11% of the Moon is Illuminated
Mar 8
Waning Crescent
Mar 11
New
Mar 19
First Quarter
Mar 27
Full
Apr 2
Last Quarter

Hourly Weather History & Observations

Time (MST) Temp. Windchill Dew Point Humidity Pressure Visibility Wind Dir Wind Speed Gust Speed Precip Events Conditions
12:53 AM 42.1 °F 38.4 °F 14.0 °F 32% 29.83 in 10.0 mi East 5.8 mph - N/A   Clear
1:53 AM 39.0 °F 34.0 °F 12.9 °F 34% 29.82 in 10.0 mi ESE 6.9 mph - N/A   Clear
2:53 AM 34.0 °F 28.0 °F 12.0 °F 40% 29.80 in 10.0 mi North 6.9 mph - N/A   Clear
3:53 AM 33.1 °F 26.9 °F 12.0 °F 42% 29.80 in 10.0 mi North 6.9 mph - N/A   Clear
4:53 AM 32.0 °F - 14.0 °F 48% 29.83 in 10.0 mi Calm Calm - N/A   Clear
5:53 AM 27.0 °F - 12.9 °F 56% 29.88 in 10.0 mi Calm Calm - N/A   Clear
6:53 AM 34.0 °F - 15.1 °F 46% 29.86 in 10.0 mi Calm Calm - N/A   Mostly Cloudy
7:53 AM 45.0 °F - 14.0 °F 29% 29.82 in 10.0 mi Calm Calm - N/A   Clear
8:53 AM 48.9 °F - 12.9 °F 24% 29.82 in 10.0 mi Variable 3.5 mph - N/A   Clear
9:53 AM 54.0 °F - 12.9 °F 20% 29.75 in 10.0 mi Variable 4.6 mph - N/A   Clear
10:53 AM 57.9 °F - 14.0 °F 18% 29.73 in 10.0 mi SSW 13.8 mph 18.4 mph N/A   Mostly Cloudy
11:48 AM 57.2 °F - 14.0 °F 18% 29.92 in 1.5 mi West 17.3 mph 24.2 mph N/A   Haze
11:53 AM 57.0 °F - 14.0 °F 18% 29.75 in 1.2 mi SW 13.8 mph 24.2 mph N/A   Haze
12:03 PM 57.2 °F - 15.8 °F 20% 29.91 in 10.0 mi SW 11.5 mph 21.9 mph N/A   Clear
12:53 PM 59.0 °F - 18.0 °F 20% 29.70 in 10.0 mi SSW 15.0 mph 26.5 mph N/A   Scattered Clouds
1:53 PM 55.0 °F - 18.0 °F 23% 29.68 in 10.0 mi WSW 10.4 mph - N/A   Overcast
2:53 PM 45.0 °F 35.8 °F 35.1 °F 68% 29.81 in 8.0 mi SW 26.5 mph 36.8 mph 0.00 in Rain Light Rain
3:16 PM 41.0 °F 31.1 °F 37.4 °F 87% 29.92 in 5.0 mi SW 23.0 mph 28.8 mph 0.04 in Rain Rain
3:30 PM 39.2 °F 37.0 °F 37.4 °F 93% 29.89 in 4.0 mi WSW 3.5 mph - 0.06 in Rain Light Rain
3:38 PM 41.0 °F - 39.2 °F 93% 29.88 in 10.0 mi Calm Calm - 0.06 in   Overcast
3:53 PM 39.9 °F 36.7 °F 37.9 °F 93% 29.81 in 10.0 mi East 4.6 mph - 0.06 in   Overcast
4:53 PM 43.0 °F 36.4 °F 37.9 °F 82% 29.75 in 10.0 mi ESE 12.7 mph - 0.00 in   Mostly Cloudy
5:53 PM 44.1 °F 36.2 °F 37.0 °F 76% 29.75 in 10.0 mi SSE 18.4 mph 24.2 mph N/A   Overcast
6:35 PM 42.8 °F 36.6 °F 37.4 °F 81% 29.81 in 10.0 mi SSW 11.5 mph 26.5 mph N/A   Overcast
6:53 PM 43.0 °F 38.2 °F 37.9 °F 82% 29.73 in 10.0 mi South 8.1 mph - N/A   Overcast
7:45 PM 42.8 °F 35.8 °F 37.4 °F 81% 29.80 in 10.0 mi SE 13.8 mph 18.4 mph N/A   Overcast
7:53 PM 42.1 °F 34.9 °F 37.9 °F 85% 29.69 in 10.0 mi SSE 13.8 mph - 0.01 in Rain Light Rain
8:53 PM 41.0 °F 36.4 °F 37.0 °F 86% 29.67 in 10.0 mi South 6.9 mph - 0.01 in   Scattered Clouds
9:53 PM 39.9 °F 34.5 °F 33.1 °F 77% 29.65 in 10.0 mi South 8.1 mph 21.9 mph N/A   Mostly Cloudy
10:37 PM 39.2 °F 30.2 °F 33.8 °F 81% 29.81 in 10.0 mi WSW 17.3 mph 26.5 mph N/A   Overcast
10:53 PM 37.9 °F 31.5 °F 34.0 °F 86% 29.65 in 10.0 mi WSW 9.2 mph - N/A   Overcast
11:53 PM 37.0 °F - 34.0 °F 89% 29.64 in 10.0 mi Calm Calm - N/A   Overcast